This is the latest recevied weather packets stored in our database for station/object IR4UCA. If no packets are shown the sender has not sent any weather packets the latest 10 day(s).
| Time | Temp. | Humidity | Pressure | Rain* | Wind** | Luminosity | Snow |
|---|---|---|---|---|---|---|---|
| 1777898383 | 25° C | 37% | 1016.1 hPa | 0 mm | - | - | - |
| 1777897784 | 25° C | 36% | 1016.1 hPa | 0 mm | - | - | - |
| 1777896583 | 24.44° C | 38% | 1016.3 hPa | 0 mm | - | - | - |
| 1777895984 | 24.44° C | 38% | 1016.3 hPa | 0 mm | - | - | - |
| 1777894184 | 24.44° C | 38% | 1016.7 hPa | 0 mm | - | - | - |
| 1777892984 | 25° C | 38% | 1016.9 hPa | 0 mm | - | - | - |
| 1777892385 | 24.44° C | 36% | 1016.9 hPa | 0 mm | - | - | - |
| 1777891784 | 24.44° C | 39% | 1017 hPa | 0 mm | - | - | - |
| 1777891184 | 24.44° C | 38% | 1017.2 hPa | 0 mm | - | - | - |
| 1777890584 | 23.33° C | 39% | 1017.4 hPa | 0 mm | - | - | - |
| 1777889984 | 23.33° C | 41% | 1017.4 hPa | 0 mm | - | - | - |
| 1777889383 | 22.78° C | 41% | 1017.5 hPa | 0 mm | - | - | - |
| 1777888784 | 22.78° C | 42% | 1017.5 hPa | 0 mm | - | - | - |
| 1777888184 | 22.78° C | 44% | 1017.5 hPa | 0 mm | - | - | - |
| 1777887584 | 22.78° C | 45% | 1017.6 hPa | 0 mm | - | - | - |
| 1777886984 | 22.22° C | 46% | 1017.6 hPa | 0 mm | - | - | - |
| 1777885784 | 21.67° C | 44% | 1017.6 hPa | 0 mm | - | - | - |
| 1777885184 | 21.67° C | 44% | 1017.6 hPa | 0 mm | - | - | - |
| 1777884584 | 21.67° C | 44% | 1017.7 hPa | 0 mm | - | - | - |
| 1777883984 | 21.67° C | 42% | 1017.8 hPa | 0 mm | - | - | - |
| 1777883384 | 21.67° C | 42% | 1017.7 hPa | 0 mm | - | - | - |
| 1777882788 | 20.56° C | 45% | 1017.8 hPa | 0 mm | - | - | - |
| 1777882184 | 20° C | 47% | 1017.8 hPa | 0 mm | - | - | - |
| 1777881584 | 19.44° C | 48% | 1017.8 hPa | 0 mm | - | - | - |
| 1777880984 | 18.89° C | 49% | 1017.8 hPa | 0 mm | - | - | - |
* Rain latest hour (hover to see other rain measurements)
** Current wind speed in m/s (hover to see current wind gust speed)